GW6374 Weather Reports


time (UTC)temp
C
wind
direction
speed
KPH
gust
KPH
rain 1hr
cm
rain 24hr
cm
rain mn
cm
humidity
%
barometer
mb
20260509162008 11 98 16.1 24.1 0.00 0.00 0.00 83 1005.8
20260509161504 11 95 12.9 22.5 0.00 0.00 0.00 85 1005.8
20260509160959 11 96 17.7 24.1 0.00 0.00 0.00 83 1005.9
20260509160455 11 94 20.9 22.5 0.00 0.00 0.00 85 1006.0
20260509155956 11 95 16.1 22.5 0.00 0.00 0.00 85 1006.2
20260509155453 10 92 14.5 16.1 0.00 0.00 0.00 86 1006.4
20260509154949 10 96 14.5 16.1 0.00 0.00 0.00 87 1006.5
20260509154445 10 84 16.1 16.1 0.00 0.00 0.00 86 1006.5
20260509153943 10 87 11.3 11.3 0.00 0.00 0.00 86 1006.5
20260509153439 10 87 9.7 14.5 0.00 0.00 0.00 85 1006.5
20260509152937 10 91 17.7 19.3 0.00 0.00 0.00 84 1006.5
20260509152432 10 91 14.5 19.3 0.00 0.00 0.00 85 1006.6
20260509151930 10 92 14.5 20.9 0.00 0.00 0.00 86 1006.6
20260509151426 10 91 16.1 20.9 0.00 0.00 0.00 85 1006.5
20260509150924 10 86 16.1 20.9 0.00 0.00 0.00 85 1006.6
20260509150421 11 96 16.1 20.9 0.00 0.00 0.00 85 1006.4
20260509145919 11 99 14.5 17.7 0.00 0.00 0.00 85 1006.6
20260509145419 11 96 14.5 17.7 0.00 0.00 0.00 84 1006.5
20260509144915 11 93 14.5 16.1 0.00 0.00 0.00 84 1006.6
20260509144412 11 98 9.7 12.9 0.00 0.00 0.00 85 1006.7
20260509143909 11 99 14.5 17.7 0.00 0.00 0.00 84 1006.8
20260509143407 11 82 16.1 17.7 0.00 0.00 0.00 80 1006.8
20260509142902 13 79 14.5 16.1 0.00 0.00 0.00 74 1006.9
20260509142359 16 314 1.6 4.8 0.00 0.00 0.00 65 1006.7
20260509141854 16 102 4.8 6.4 0.00 0.00 0.00 65 1006.9
20260509141352 15 98 4.8 6.4 0.00 0.00 0.00 69 1007.0
20260509140848 15 186 4.8 6.4 0.00 0.00 0.00 67 1006.8
20260509140345 15 108 4.8 6.4 0.00 0.00 0.00 70 1006.9
20260509135843 15 116 4.8 6.4 0.00 0.00 0.00 68 1007.0
20260509135341 16 117 6.4 14.5 0.00 0.00 0.00 66 1007.0
20260509134838 16 110 6.4 8.0 0.00 0.00 0.00 67 1007.0
20260509134335 16 134 6.4 6.4 0.00 0.00 0.00 67 1007.0
20260509133831 16 113 6.4 8.0 0.00 0.00 0.00 66 1007.0
20260509133328 15 105 4.8 8.0 0.00 0.00 0.00 69 1007.0
20260509132827 15 168 3.2 8.0 0.00 0.00 0.00 69 1007.0
20260509132325 15 158 4.8 6.4 0.00 0.00 0.00 71 1007.2
20260509131822 14 119 6.4 8.0 0.00 0.00 0.00 74 1007.1
20260509131319 13 118 3.2 6.4 0.00 0.00 0.00 72 1007.1
20260509130815 13 116 3.2 4.8 0.00 0.00 0.00 72 1007.3
20260509130311 13 110 4.8 6.4 0.00 0.00 0.00 74 1007.2
20260509125808 12 119 3.2 4.8 0.00 0.00 0.00 75 1007.4
20260509125307 12 94 3.2 4.8 0.00 0.00 0.00 76 1007.4
20260509124801 12 123 6.4 6.4 0.00 0.00 0.00 75 1007.1
20260509124257 12 133 3.2 6.4 0.00 0.00 0.00 75 1007.4
20260509123755 11 107 3.2 8.0 0.00 0.00 0.00 75 1007.4
20260509123252 11 136 3.2 6.4 0.00 0.00 0.00 74 1007.4
20260509122748 11 111 6.4 9.7 0.00 0.00 0.00 74 1007.6
20260509122245 11 115 6.4 6.4 0.00 0.00 0.00 76 1007.7
20260509121742 11 127 6.4 8.0 0.00 0.00 0.00 77 1007.7
20260509121239 10 120 4.8 8.0 0.00 0.00 0.00 79 1007.7
20260509120737 10 104 3.2 4.8 0.00 0.00 0.00 80 1007.6
20260509120235 10 103 4.8 4.8 0.00 0.00 0.00 80 1007.5
20260509115733 9 103 3.2 4.8 0.00 0.00 0.00 80 1007.5
20260509115229 9 120 3.2 4.8 0.00 0.00 0.00 82 1007.7
20260509114728 8 117 3.2 6.4 0.00 0.00 0.00 81 1007.5
20260509114226 8 118 4.8 4.8 0.00 0.00 0.00 81 1007.4
20260509113725 8 122 3.2 4.8 0.00 0.00 0.00 81 1007.5
20260509113221 8 113 3.2 4.8 0.00 0.00 0.00 81 1007.7
20260509112718 8 105 3.2 4.8 0.00 0.00 0.00 81 1007.7
20260509112215 8 113 4.8 4.8 0.00 0.00 0.00 82 1007.8
20260509111712 7 105 3.2 4.8 0.00 0.00 0.00 83 1007.7
20260509111209 7 111 4.8 4.8 0.00 0.00 0.00 83 1007.8
20260509110707 7 113 3.2 6.4 0.00 0.00 0.00 83 1007.9
20260509110203 6 111 4.8 4.8 0.00 0.00 0.00 82 1008.0
20260509105701 6 105 3.2 4.8 0.00 0.00 0.00 82 1007.6
20260509105158 6 120 3.2 6.4 0.00 0.00 0.00 81 1007.6
20260509104655 6 124 4.8 4.8 0.00 0.00 0.00 81 1007.6
20260509104152 6 118 4.8 6.4 0.00 0.00 0.00 81 1007.6
20260509103650 6 127 4.8 6.4 0.00 0.00 0.00 81 1007.7
20260509103147 6 128 3.2 6.4 0.00 0.00 0.00 81 1007.6
20260509102645 6 137 4.8 4.8 0.00 0.00 0.00 81 1007.5
20260509102142 6 141 4.8 6.4 0.00 0.00 0.00 81 1007.5
20260509101638 6 111 3.2 6.4 0.00 0.00 0.00 80 1007.5
20260509101135 5 125 4.8 6.4 0.00 0.00 0.00 79 1007.4
20260509100632 5 114 3.2 4.8 0.00 0.00 0.00 80 1007.3
20260509100130 5 133 4.8 6.4 0.00 0.00 0.00 79 1007.3
20260509095626 5 131 4.8 6.4 0.00 0.00 0.00 78 1007.5
20260509095123 5 137 4.8 6.4 0.00 0.00 0.00 77 1007.6
20260509094619 5 121 4.8 6.4 0.00 0.00 0.00 77 1007.5
20260509094117 5 136 6.4 6.4 0.00 0.00 0.00 76 1007.5
20260509093615 5 129 4.8 6.4 0.00 0.00 0.00 76 1007.7
20260509093112 5 123 4.8 4.8 0.00 0.00 0.00 76 1007.5
20260509092610 5 123 4.8 4.8 0.00 0.00 0.00 74 1007.5
20260509092108 5 114 3.2 4.8 0.00 0.00 0.00 73 1007.4
20260509091606 5 125 4.8 6.4 0.00 0.00 0.00 73 1007.5
20260509091101 5 139 4.8 6.4 0.00 0.00 0.00 73 1007.5
20260509090559 5 128 4.8 6.4 0.00 0.00 0.00 73 1007.4
20260509090057 5 135 4.8 6.4 0.00 0.00 0.00 73 1007.6
20260509085554 5 139 3.2 6.4 0.00 0.00 0.00 73 1007.5
20260509085050 5 148 4.8 6.4 0.00 0.00 0.00 73 1007.5
20260509084547 5 130 6.4 6.4 0.00 0.00 0.00 74 1007.7
20260509084044 5 155 3.2 6.4 0.00 0.00 0.00 74 1007.5
20260509083542 5 137 6.4 6.4 0.00 0.00 0.00 75 1007.8
20260509083038 5 126 4.8 6.4 0.00 0.00 0.00 75 1007.6
20260509082536 5 104 3.2 4.8 0.00 0.00 0.00 76 1007.6
20260509082033 5 98 3.2 4.8 0.00 0.00 0.00 75 1007.7
20260509081530 5 97 4.8 6.4 0.00 0.00 0.00 74 1007.7
20260509081026 6 135 4.8 6.4 0.00 0.00 0.00 73 1007.8
20260509080525 6 139 4.8 6.4 0.00 0.00 0.00 72 1007.9
20260509080022 6 148 3.2 6.4 0.00 0.00 0.00 71 1007.9
20260509075519 6 126 4.8 4.8 0.00 0.00 0.00 70 1008.0
20260509075017 6 118 3.2 6.4 0.00 0.00 0.00 71 1008.1
20260509074514 6 146 3.2 6.4 0.00 0.00 0.00 71 1008.1
20260509074010 5 115 4.8 6.4 0.00 0.00 0.00 70 1008.0
20260509073507 5 140 3.2 6.4 0.00 0.00 0.00 71 1008.0
20260509073003 5 150 4.8 6.4 0.00 0.00 0.00 71 1008.1
20260509072500 5 141 4.8 6.4 0.00 0.00 0.00 72 1008.3
20260509071957 5 143 4.8 6.4 0.00 0.00 0.00 74 1008.3
20260509071453 5 116 4.8 6.4 0.00 0.00 0.00 75 1008.3
20260509070952 5 108 3.2 6.4 0.00 0.00 0.00 75 1008.3
20260509070448 5 118 4.8 6.4 0.00 0.00 0.00 75 1008.4
20260509065943 5 117 4.8 4.8 0.00 0.00 0.00 74 1008.4
20260509065440 5 112 3.2 4.8 0.00 0.00 0.00 74 1008.5
20260509064936 5 108 3.2 4.8 0.00 0.00 0.00 74 1008.7
20260509064435 5 126 4.8 6.4 0.00 0.00 0.00 71 1008.7
20260509063933 5 144 4.8 6.4 0.00 0.00 0.00 71 1008.6
20260509063432 5 130 4.8 6.4 0.00 0.00 0.00 72 1008.8
20260509062930 5 143 6.4 6.4 0.00 0.00 0.00 73 1008.9
20260509062427 5 134 4.8 6.4 0.00 0.00 0.00 73 1008.7
20260509061925 5 141 6.4 6.4 0.00 0.00 0.00 74 1008.9
20260509061422 5 136 4.8 6.4 0.00 0.00 0.00 75 1008.9
20260509060919 5 137 4.8 6.4 0.00 0.00 0.00 76 1009.2
20260509060416 5 121 4.8 8.0 0.00 0.00 0.00 77 1009.3
20260509055911 5 128 6.4 8.0 0.00 0.00 0.00 77 1009.2
20260509055407 5 134 6.4 6.4 0.00 0.00 0.00 77 1009.2
20260509054904 5 133 4.8 6.4 0.00 0.00 0.00 77 1009.2
20260509054401 5 145 6.4 6.4 0.00 0.00 0.00 78 1009.2
20260509053859 5 130 6.4 6.4 0.00 0.00 0.00 79 1009.2
20260509053356 5 136 4.8 6.4 0.00 0.00 0.00 79 1009.5
20260509052854 5 114 3.2 4.8 0.00 0.00 0.00 79 1009.5
20260509052351 5 112 3.2 6.4 0.00 0.00 0.00 78 1009.7
20260509051849 5 131 6.4 6.4 0.00 0.00 0.00 77 1009.7
20260509051347 5 144 4.8 6.4 0.00 0.00 0.00 76 1009.6
20260509050843 5 134 4.8 6.4 0.00 0.00 0.00 76 1009.7
20260509050340 5 132 6.4 6.4 0.00 0.00 0.00 77 1009.8
20260509045837 5 126 6.4 6.4 0.00 0.00 0.00 77 1009.9
20260509045334 5 124 4.8 6.4 0.00 0.00 0.00 79 1010.0
20260509044831 5 119 4.8 4.8 0.00 0.00 0.00 80 1009.9
20260509044329 5 123 6.4 6.4 0.00 0.00 0.00 79 1010.0
20260509043825 5 134 6.4 6.4 0.00 0.00 0.00 78 1010.0
20260509043321 5 134 6.4 6.4 0.00 0.00 0.00 78 1010.1
20260509042817 5 123 4.8 6.4 0.00 0.00 0.00 78 1010.1
20260509042314 5 146 4.8 6.4 0.00 0.00 0.00 79 1010.1
20260509041810 5 135 3.2 6.4 0.00 0.00 0.00 80 1010.3
20260509041308 5 124 4.8 6.4 0.00 0.00 0.00 82 1010.2
20260509040806 5 141 4.8 6.4 0.00 0.00 0.00 82 1010.1
20260509040303 5 131 4.8 6.4 0.00 0.00 0.00 83 1010.4
20260509035800 5 129 4.8 6.4 0.00 0.10 0.10 82 1010.3
20260509035256 5 139 6.4 6.4 0.00 0.10 0.10 81 1010.3
20260509034753 6 136 4.8 6.4 0.00 0.10 0.10 80 1010.2
20260509034251 6 129 4.8 6.4 0.00 0.10 0.10 79 1010.3
20260509033748 6 144 4.8 6.4 0.00 0.10 0.10 78 1010.4
20260509033245 6 142 4.8 6.4 0.00 0.10 0.10 77 1010.3
20260509032741 6 136 4.8 6.4 0.00 0.10 0.10 77 1010.4
20260509032238 6 126 4.8 6.4 0.00 0.10 0.10 76 1010.3
20260509031736 6 124 3.2 4.8 0.00 0.10 0.10 76 1010.4
20260509031233 6 123 4.8 6.4 0.00 0.10 0.10 75 1010.4
20260509030731 6 142 4.8 6.4 0.00 0.10 0.10 74 1010.4
20260509030229 6 130 6.4 6.4 0.00 0.10 0.10 75 1010.5
20260509025725 7 125 4.8 6.4 0.00 0.10 0.10 75 1010.6
20260509025221 7 118 3.2 6.4 0.00 0.10 0.10 73 1010.5
20260509024716 7 132 4.8 6.4 0.00 0.10 0.10 73 1010.5
20260509024212 7 145 6.4 6.4 0.00 0.10 0.10 73 1010.5
20260509023710 7 143 6.4 8.0 0.00 0.10 0.10 73 1010.4
20260509023207 7 151 3.2 6.4 0.00 0.10 0.10 72 1010.4
20260509022703 7 142 4.8 6.4 0.00 0.10 0.10 72 1010.4
20260509022201 7 159 3.2 6.4 0.00 0.10 0.10 72 1010.4
20260509021658 7 140 3.2 6.4 0.00 0.10 0.10 72 1010.5
20260509021155 7 141 4.8 6.4 0.00 0.10 0.10 72 1010.5
20260509020653 7 125 4.8 6.4 0.00 0.10 0.10 73 1010.5
20260509020150 7 118 6.4 6.4 0.00 0.10 0.10 73 1010.6
20260509015648 7 116 4.8 8.0 0.00 0.10 0.10 74 1010.6
20260509015146 7 109 4.8 6.4 0.00 0.10 0.10 74 1010.4
20260509014642 7 129 6.4 6.4 0.00 0.10 0.10 75 1010.5
20260509014138 7 117 3.2 6.4 0.00 0.10 0.10 75 1010.6
20260509013636 7 115 4.8 4.8 0.00 0.10 0.10 74 1010.7
20260509013131 8 130 4.8 6.4 0.00 0.10 0.10 73 1010.6
20260509012628 8 128 4.8 6.4 0.00 0.10 0.10 73 1010.6
20260509012125 8 125 6.4 6.4 0.00 0.10 0.10 72 1010.5
20260509011623 8 112 4.8 8.0 0.00 0.10 0.10 70 1010.6
20260509011120 8 126 3.2 4.8 0.00 0.10 0.10 68 1010.5
20260509010617 9 112 3.2 6.4 0.00 0.10 0.10 67 1010.5
20260509010114 9 138 6.4 8.0 0.00 0.10 0.10 65 1010.1
20260509005612 9 117 6.4 8.0 0.00 0.10 0.10 64 1010.3
20260509005107 10 133 4.8 6.4 0.00 0.10 0.10 64 1010.3
20260509004604 10 136 6.4 6.4 0.00 0.10 0.10 61 1010.0
20260509004101 10 120 4.8 6.4 0.00 0.10 0.10 61 1009.9
20260509003559 10 117 6.4 6.4 0.00 0.10 0.10 60 1010.0
20260509003056 10 129 6.4 6.4 0.00 0.10 0.10 59 1009.9
20260509002554 10 122 4.8 6.4 0.00 0.10 0.10 58 1009.8
20260509002051 11 123 6.4 6.4 0.00 0.10 0.10 56 1009.7
20260509001548 11 112 4.8 8.0 0.00 0.10 0.10 55 1009.7
20260509001044 11 139 4.8 9.7 0.00 0.10 0.10 53 1009.8
20260509000542 12 115 3.2 9.7 0.00 0.10 0.10 52 1009.7
20260509000038 12 119 4.8 8.0 0.00 0.10 0.10 52 1009.8
20260508235536 12 112 4.8 8.0 0.00 0.10 0.10 51 1009.9
20260508235032 12 124 4.8 6.4 0.00 0.10 0.10 52 1009.9
20260508234530 12 125 4.8 8.0 0.00 0.10 0.10 54 1009.9
20260508234027 11 128 8.0 8.0 0.00 0.10 0.10 57 1009.8
20260508233526 11 103 11.3 12.9 0.00 0.10 0.10 62 1009.6
20260508233023 11 116 6.4 12.9 0.00 0.10 0.10 57 1009.7
20260508232520 11 112 6.4 9.7 0.00 0.10 0.10 59 1009.6
20260508232017 11 107 11.3 17.7 0.00 0.10 0.10 60 1009.8
20260508231514 10 117 3.2 6.4 0.00 0.10 0.10 62 1009.6
20260508231011 10 108 4.8 12.9 0.00 0.10 0.10 64 1009.8
20260508230508 10 109 6.4 6.4 0.00 0.10 0.10 56 1009.6
20260508230004 10 114 4.8 8.0 0.00 0.10 0.10 58 1009.7
20260508225502 10 139 6.4 8.0 0.00 0.10 0.10 70 1009.7
20260508224958 10 103 9.7 19.3 0.00 0.10 0.10 74 1009.7
20260508224456 10 97 17.7 20.9 0.00 0.10 0.10 76 1009.8
20260508223953 10 87 14.5 16.1 0.00 0.10 0.10 73 1010.0
20260508223451 10 99 11.3 14.5 0.00 0.10 0.10 65 1010.0
20260508222948 10 103 9.7 19.3 0.00 0.10 0.10 66 1009.9
20260508222446 10 100 17.7 24.1 0.00 0.10 0.10 75 1009.9
20260508221942 10 93 16.1 20.9 0.00 0.10 0.10 74 1009.8
20260508221438 10 94 14.5 19.3 0.00 0.10 0.10 71 1009.8
20260508220934 10 100 14.5 20.9 0.00 0.10 0.10 72 1009.9
20260508220431 10 101 14.5 19.3 0.00 0.10 0.10 73 1009.9
20260508215927 10 95 14.5 20.9 0.00 0.10 0.10 69 1010.1
20260508215424 10 94 20.9 20.9 0.00 0.10 0.10 71 1010.1
20260508214921 10 92 16.1 17.7 0.00 0.10 0.10 69 1009.9
20260508214419 10 100 14.5 19.3 0.00 0.10 0.10 67 1010.1
20260508213914 10 98 14.5 19.3 0.00 0.10 0.10 70 1010.1
20260508213412 10 95 14.5 20.9 0.00 0.10 0.10 66 1010.0
20260508212907 10 92 14.5 17.7 0.00 0.10 0.10 74 1010.1
20260508212404 10 94 16.1 17.7 0.00 0.10 0.10 70 1010.1
20260508211900 10 92 14.5 17.7 0.00 0.10 0.10 72 1010.2
20260508211355 10 104 14.5 17.7 0.00 0.10 0.10 72 1010.1
20260508210854 10 86 12.9 12.9 0.00 0.10 0.10 73 1010.1
20260508210350 10 83 12.9 14.5 0.00 0.10 0.10 73 1010.3
20260508205846 10 96 12.9 17.7 0.00 0.10 0.10 72 1010.3
20260508205343 10 84 12.9 16.1 0.00 0.10 0.10 60 1010.3
20260508204839 10 79 11.3 16.1 0.00 0.10 0.10 67 1010.4
20260508204336 10 84 11.3 14.5 0.00 0.10 0.10 62 1010.4
20260508203832 10 84 11.3 12.9 0.00 0.10 0.10 60 1010.3
20260508203329 10 78 11.3 12.9 0.00 0.10 0.10 66 1010.4
20260508202824 10 69 9.7 12.9 0.00 0.10 0.10 59 1010.5
20260508202322 10 68 11.3 11.3 0.00 0.10 0.10 60 1010.5
20260508201819 10 70 9.7 12.9 0.00 0.10 0.10 57 1010.6
20260508201316 10 65 9.7 12.9 0.00 0.10 0.10 61 1010.6
20260508200812 10 70 9.7 12.9 0.00 0.10 0.10 65 1010.7
20260508200309 10 72 11.3 12.9 0.00 0.10 0.10 59 1010.9
20260508195805 9 71 11.3 12.9 0.00 0.10 0.10 62 1011.0
20260508195305 9 71 9.7 12.9 0.00 0.10 0.10 62 1010.9
20260508194758 9 84 8.0 11.3 0.00 0.10 0.10 60 1010.8
20260508194255 9 89 6.4 9.7 0.00 0.10 0.10 61 1011.0
20260508193752 8 74 6.4 8.0 0.00 0.10 0.10 65 1011.4
20260508193249 8 88 6.4 8.0 0.00 0.10 0.10 70 1011.1
20260508192745 8 91 8.0 8.0 0.00 0.10 0.10 71 1011.3
20260508192242 8 92 6.4 9.7 0.00 0.10 0.10 71 1011.4
20260508191740 8 89 8.0 9.7 0.00 0.10 0.10 73 1011.5
20260508191237 8 87 6.4 6.4 0.00 0.10 0.10 71 1011.5
20260508190734 8 79 3.2 4.8 0.00 0.10 0.10 72 1011.7
20260508190229 8 45 4.8 6.4 0.00 0.10 0.10 76 1011.8
20260508185726 7 44 1.6 3.2 0.00 0.10 0.10 78 1011.7
20260508185224 7 287 1.6 8.0 0.00 0.10 0.10 76 1011.8
20260508184721 7 336 4.8 8.0 0.00 0.10 0.10 80 1011.8
20260508184218 7 22 6.4 6.4 0.00 0.10 0.10 82 1012.0
20260508183715 7 28 8.0 8.0 0.00 0.10 0.10 80 1011.8
20260508183211 7 26 6.4 9.7 0.00 0.10 0.10 79 1011.6
20260508182707 7 13 6.4 6.4 0.00 0.10 0.10 81 1011.7
20260508182204 7 39 9.7 9.7 0.00 0.10 0.10 81 1011.9
20260508181700 7 64 6.4 9.7 0.00 0.10 0.10 83 1011.6
20260508181157 7 55 8.0 11.3 0.00 0.10 0.10 84 1011.8
20260508180653 7 45 9.7 9.7 0.00 0.10 0.10 83 1011.8
20260508180151 6 10 4.8 6.4 0.00 0.10 0.10 83 1011.9
20260508175647 6 23 6.4 8.0 0.00 0.10 0.10 85 1011.9
20260508175144 6 355 6.4 11.3 0.00 0.10 0.10 85 1012.1
20260508174642 6 0 8.0 11.3 0.00 0.10 0.10 85 1012.0
20260508174138 6 341 12.9 12.9 0.00 0.10 0.10 84 1012.0
20260508173635 6 347 9.7 14.5 0.00 0.10 0.10 84 1012.0
20260508173131 7 358 11.3 12.9 0.00 0.10 0.10 83 1012.0
20260508172628 7 16 12.9 14.5 0.00 0.10 0.10 83 1012.0
20260508172125 7 36 14.5 14.5 0.00 0.10 0.10 82 1012.1
20260508171621 7 37 11.3 11.3 0.00 0.10 0.10 82 1011.8
20260508171118 7 56 8.0 11.3 0.00 0.10 0.10 80 1012.0
20260508170615 7 5 8.0 9.7 0.00 0.10 0.10 80 1012.0
20260508170113 7 17 8.0 12.9 0.00 0.10 0.10 80 1012.0
20260508165609 7 27 9.7 12.9 0.00 0.10 0.10 80 1012.1
20260508165106 7 26 9.7 12.9 0.00 0.10 0.10 81 1012.0
20260508164603 7 1 8.0 9.7 0.00 0.10 0.10 80 1011.9
20260508164100 7 333 6.4 9.7 0.00 0.10 0.10 80 1012.2
20260508163557 7 8 8.0 9.7 0.00 0.10 0.10 77 1012.3
20260508163054 7 41 11.3 14.5 0.00 0.10 0.10 77 1012.2
20260508162550 7 352 3.2 9.7 0.00 0.10 0.10 78 1012.2